Regional Weather Roundup
Issued by NWS Little Rock, AR

Home | Current Version | Previous Version | Text Only | Print | Product List | Glossary Off
Versions: 1 2 3 4 5 6 7 8 9 10 11 12 13 14 15 16 17 18 19 20 21 22 23 24 25 26 27 28 29 30 31 32 33 34 35 36 37 38 39 40 41 42 43 44 45 46 47 48 49 50

099
ASUS44 KLZK 260605
RWRLZK

WEATHER ROUNDUP FOR ARKANSAS
NATIONAL WEATHER SERVICE LITTLE ROCK AR
100 AM CDT MON JUN 26 2017

NOTE: "FAIR" INDICATES FEW OR NO CLOUDS BELOW 12,000 FEET WITH NO
SIGNIFICANT WEATHER AND/OR OBSTRUCTIONS TO VISIBILITY.

ARZ001-003-010-029-260700-
NORTHWEST ARKANSAS

CITY           SKY/WX    TMP DP  RH WIND       PRES   REMARKS
FAYETTEVILLE   PTCLDY    66  62  87 S3        30.24S
6HR MIN TEMP:  65; 6HR MAX TEMP:  81; 6HR PCP: TRACE;

FORT SMITH     PTCLDY    73  65  75 E5        30.19R
6HR MIN TEMP:  73; 6HR MAX TEMP:  85;

HARRISON       CLOUDY    65  61  87 W3        30.24S
6HR MIN TEMP:  64; 6HR MAX TEMP:  81; 6HR PCP: TRACE;

BENTONVILLE    CLOUDY    70  57  64 CALM      30.26R
6HR MIN TEMP:  70; 6HR MAX TEMP:  81;

ROGERS         CLOUDY    67  61  81 NE5       30.25S
6HR MIN TEMP:  67; 6HR MAX TEMP:  80;

SILOAM SPGS    CLOUDY    70  57  64 CALM      30.24R
6HR MIN TEMP:  70; 6HR MAX TEMP:  82;

HIGHFILL       CLOUDY    71  59  65 N5        30.24S
6HR MIN TEMP:  71; 6HR MAX TEMP:  84; 6HR PCP: TRACE;

$$

ARZ004-005-016-260700-
NORTH CENTRAL ARKANSAS

CITY           SKY/WX    TMP DP  RH WIND       PRES   REMARKS
BATESVILLE     MOCLDY    66  59  77 NW3       30.19S
6HR MIN TEMP:  64; 6HR MAX TEMP:  82;

FLIPPIN        CLOUDY    70  57  64 CALM      30.19S
6HR MIN TEMP:  66; 6HR MAX TEMP:  82;

MTN HOME       CLOUDY    67  59  75 CALM      30.21
6HR MIN TEMP:  66; 6HR MAX TEMP:  81;

$$

ARZ040-041-260700-
WEST CENTRAL ARKANSAS

CITY           SKY/WX    TMP DP  RH WIND       PRES   REMARKS
MENA           CLOUDY    68  64  88 CALM      30.23S
MOUNT IDA      CLOUDY    66  65  96 CALM      30.19S
6HR MIN TEMP:  66; 6HR MAX TEMP:  83;

$$

ARZ009-017-025-026-028-260700-
NORTHEAST ARKANSAS

CITY           SKY/WX    TMP DP  RH WIND       PRES   REMARKS
JONESBORO      PTCLDY    71  61  70 W3        30.17F
6HR MIN TEMP:  67; 6HR MAX TEMP:  85;

WALNUT RIDGE   CLEAR     72  55  56 W5        30.18F
6HR MIN TEMP:  68; 6HR MAX TEMP:  82;

BLYTHEVILLE    CLEAR     71  62  73 W5        30.18S
6HR MIN TEMP:  69; 6HR MAX TEMP:  83;

$$

ARZ022-023-033-042-044-260700-
CENTRAL ARKANSAS

CITY           SKY/WX    TMP DP  RH WIND       PRES   REMARKS
LITTLE ROCK    CLOUDY    66  64  93 SW5       30.20R
6HR MIN TEMP:  65; 6HR MAX TEMP:  81;

N LITTLE ROCK    N/A     70  61  73 CALM      30.19S
6HR MIN TEMP:  68; 6HR MAX TEMP:  83;

JACKSONVILLE   PTCLDY    65  64  98 CALM      30.19R
6HR MIN TEMP:  65; 6HR MAX TEMP:  84;

CONWAY           N/A     68  66  94 CALM      30.18S
SEARCY         CLEAR     64  64 100 CALM      30.20S
6HR MIN TEMP:  64; 6HR MAX TEMP:  84;

HOT SPRINGS    CLOUDY    70  62  76 CALM      30.20S
6HR MIN TEMP:  70; 6HR MAX TEMP:  84;

RUSSELLVILLE   CLOUDY    68  65  90 CALM      30.19S
6HR MIN TEMP:  67; 6HR MAX TEMP:  82;

CLINTON        FAIR      64  61  88 CALM      30.22R
$$

ARZ036-260700-
EAST ARKANSAS

CITY           SKY/WX    TMP DP  RH WIND       PRES   REMARKS
WEST MEMPHIS   CLEAR     64  62  93 CALM      30.17F
6HR MIN TEMP:  64; 6HR MAX TEMP:  81;

$$

ARZ050-053-066-070-073-260700-
SOUTHWEST ARKANSAS

CITY           SKY/WX    TMP DP  RH WIND       PRES   REMARKS
CAMDEN         CLEAR     64  63  94 CALM      30.20R
TEXARKANA      CLEAR     67  64  90 SE3       30.19F
6HR MIN TEMP:  67; 6HR MAX TEMP:  83;

EL DORADO      CLEAR     65  64  97 CALM      30.20S
6HR MIN TEMP:  65; 6HR MAX TEMP:  82;

DE QUEEN       CLOUDY    68  67  96 NE3       30.17F
6HR MIN TEMP:  67; 6HR MAX TEMP:  84;

$$

ARZ056-057-069-260700-
SOUTHEAST ARKANSAS

CITY           SKY/WX    TMP DP  RH WIND       PRES   REMARKS
PINE BLUFF     CLEAR     67  65  93 CALM      30.19F
6HR MIN TEMP:  67; 6HR MAX TEMP:  81;

STUTTGART      CLEAR     72  55  56 S3        30.19S
MONTICELLO     CLEAR     66  64  93 CALM      30.19S
6HR MIN TEMP:  66; 6HR MAX TEMP:  82;


$$






USA.gov is the U.S. government's official web portal to all federal, state and local government web resources and services.